START_TIME,STEP,MOV.,M29,t_acc.,H22,t_acc.,H26,t_acc.,H30,t_acc.
1979-07-07 15:00:32.510 ,1,0,0.,24.0,0.,24.0,0.,24.0,0.,24.0
1979-07-07 15:00:56.510 ,2,1,0.,24.0,0.,24.0,0.,24.0,0.,24.0
1979-07-07 15:01:20.510 ,2,0,0.,24.0,0.,24.0,0.,24.0,0.,24.0
1979-07-07 15:01:44.510 ,3,1,0.,24.0,0.,24.0,0.,24.0,0.,24.0
1979-07-07 15:02:08.510 ,3,0,0.,24.0,0.,24.0,0.,24.0,0.,24.0
1979-07-07 15:02:32.510 ,4,1,0.,24.0,0.,24.0,0.,24.0,0.,24.0
1979-07-07 15:02:56.510 ,4,0,0.,24.0,0.,24.0,0.,24.0,0.,24.0
1979-07-07 15:03:20.510 ,5,1,0.,24.0,0.,24.0,0.,24.0,0.,24.0
1979-07-07 15:03:44.510 ,5,0,0.,24.0,0.,24.0,0.,24.0,0.,24.0
1979-07-07 15:04:08.510 ,6,1,0.,24.0,0.,24.0,0.,24.0,0.,24.0
1979-07-07 15:04:32.510 ,6,0,0.,24.0,0.,24.0,0.,24.0,0.,24.0
1979-07-07 15:04:56.510 ,7,1,0.,24.0,0.,24.0,0.,24.0,0.,24.0
1979-07-07 15:05:20.510 ,7,0,0.,24.0,0.,24.0,0.,24.0,0.,24.0
1979-07-07 15:05:44.510 ,7,1,0.,24.0,0.,24.0,0.,24.0,0.,24.0
1979-07-07 15:06:08.510 ,7,0,0.,24.0,0.,24.0,0.,24.0,0.,24.0
1979-07-07 15:06:32.510 ,6,1,0.,24.0,0.,24.0,0.,24.0,0.,24.0
1979-07-07 15:06:56.510 ,6,0,0.,24.0,0.,24.0,0.,24.0,0.,24.0
1979-07-07 15:07:20.510 ,5,1,0.,24.0,0.,24.0,0.,24.0,0.,24.0
1979-07-07 15:07:44.510 ,5,0,0.,24.0,0.,24.0,0.,24.0,0.,24.0
1979-07-07 15:08:08.510 ,4,1,0.,24.0,0.,24.0,0.,24.0,0.,24.0
1979-07-07 15:08:32.510 ,4,0,0.,24.0,0.,24.0,0.,24.0,0.,24.0
1979-07-07 15:08:56.510 ,3,1,0.,24.0,0.,24.0,0.,24.0,0.,24.0
1979-07-07 15:09:20.510 ,3,0,0.,24.0,0.,24.0,0.,24.0,0.,24.0
1979-07-07 15:09:44.510 ,2,1,0.,24.0,0.,24.0,0.,24.0,0.,24.0
1979-07-07 15:10:08.510 ,2,0,0.,24.0,0.,24.0,0.,24.0,0.,24.0
1979-07-07 15:10:32.510 ,1,1,0.,24.0,0.,24.0,0.,24.0,0.,24.0
1979-07-07 15:10:56.510 ,1,0,0.,24.0,0.,24.0,0.,24.0,0.,24.0
1979-07-07 15:11:20.510 ,0,1,0.,24.0,0.,24.0,0.,24.0,0.,24.0
1979-07-07 15:11:44.510 ,0,0,0.,24.0,0.,24.0,0.,24.0,0.,24.0
1979-07-07 15:12:08.510 ,0,1,0.,24.0,0.,24.0,0.,24.0,0.,24.0
1979-07-07 15:12:32.510 ,0,0,0.,24.0,0.,24.0,0.,24.0,0.,24.0
1979-07-07 15:12:56.510 ,1,1,0.,24.0,0.,24.0,0.,24.0,0.,24.0
1979-07-07 15:13:20.510 ,1,0,0.,24.0,0.,24.0,0.,24.0,0.,24.0
1979-07-07 15:14:32.510 ,0,0,0.,24.0,0.,24.0,0.,24.0,0.,24.0
1979-07-07 15:14:56.510 ,0,0,0.,24.0,0.,24.0,0.,24.0,0.,24.0
1979-07-07 15:14:56.510 ,0,0,0.,24.0,0.,24.0,0.,24.0,0.,24.0
1979-07-07 15:15:20.500 ,4,1,0.,24.0,0.,24.0,0.,24.0,0.,24.0
1979-07-07 15:15:44.500 ,4,0,0.,24.0,0.,24.0,0.,24.0,0.,24.0
1979-07-07 15:16:08.500 ,5,1,0.,24.0,0.,24.0,0.,24.0,0.,24.0
1979-07-07 15:16:32.500 ,5,0,0.,24.0,0.,24.0,0.,24.0,0.,24.0
1979-07-07 15:16:56.500 ,6,1,0.,24.0,0.,24.0,0.,24.0,0.,24.0
1979-07-07 15:17:20.500 ,6,0,0.,24.0,0.,24.0,0.,24.0,0.,24.0
1979-07-07 15:17:44.500 ,7,1,0.,24.0,0.,24.0,0.,24.0,0.,24.0
1979-07-07 15:18:08.500 ,7,0,0.,24.0,0.,24.0,0.,24.0,0.,24.0
1979-07-07 15:18:32.500 ,7,1,0.,24.0,0.,24.0,0.,24.0,0.,24.0
1979-07-07 15:18:56.500 ,7,0,0.,24.0,0.,24.0,0.,24.0,0.,24.0
1979-07-07 15:19:20.500 ,6,1,0.,24.0,0.,24.0,0.,24.0,0.,24.0
1979-07-07 15:19:44.500 ,6,0,0.,24.0,0.,24.0,0.,24.0,0.,24.0
1979-07-07 15:20:08.500 ,5,1,0.,24.0,0.,24.0,0.,24.0,0.,24.0
1979-07-07 15:20:32.500 ,5,0,0.,24.0,0.,24.0,0.,24.0,0.,24.0
1979-07-07 15:20:56.500 ,4,1,0.,24.0,0.,24.0,0.,24.0,0.,24.0
1979-07-07 15:21:20.500 ,4,0,0.,24.0,0.,24.0,0.,24.0,0.,24.0
1979-07-07 15:21:44.500 ,3,1,0.,24.0,0.,24.0,0.,24.0,0.,24.0
1979-07-07 15:22:08.500 ,3,0,0.,24.0,0.,24.0,0.,24.0,0.,24.0
1979-07-07 15:22:32.500 ,2,1,0.,24.0,0.,24.0,0.,24.0,0.,24.0
1979-07-07 15:22:56.500 ,2,0,0.,24.0,0.,24.0,0.,24.0,0.,24.0
1979-07-07 15:23:20.500 ,1,1,0.,24.0,0.,24.0,0.,24.0,0.,24.0
1979-07-07 15:23:44.500 ,1,0,0.,24.0,0.,24.0,0.,24.0,0.,24.0
1979-07-07 15:24:08.500 ,0,1,0.,24.0,0.,24.0,0.,24.0,0.,24.0
1979-07-07 15:24:32.500 ,0,0,0.,24.0,0.,24.0,0.,24.0,0.,24.0
1979-07-07 15:24:56.500 ,0,1,0.,24.0,0.,24.0,0.,24.0,0.,24.0
1979-07-07 15:25:20.500 ,0,0,0.,24.0,0.,24.0,0.,24.0,0.,24.0
1979-07-07 15:25:44.500 ,1,1,0.,24.0,0.,24.0,0.,24.0,0.,24.0
1979-07-07 15:26:08.500 ,1,0,0.,24.0,0.,24.0,0.,24.0,0.,24.0
1979-07-07 15:26:32.500 ,2,1,0.,24.0,0.,24.0,0.,24.0,0.,24.0
1979-07-07 15:26:56.500 ,2,0,0.,24.0,0.,24.0,0.,24.0,0.,24.0
1979-07-07 15:27:20.500 ,3,1,0.,24.0,0.,24.0,0.,24.0,0.,24.0
1979-07-07 15:27:44.500 ,3,0,0.,24.0,0.,24.0,0.,24.0,0.,24.0
1979-07-07 15:28:08.500 ,4,1,0.,24.0,0.,24.0,0.,24.0,0.,24.0
1979-07-07 15:28:32.500 ,4,0,0.,24.0,0.,24.0,0.,24.0,0.,24.0
1979-07-07 15:28:56.500 ,5,1,0.,24.0,0.,24.0,0.,24.0,0.,24.0
1979-07-07 15:29:20.500 ,5,0,0.,24.0,0.,24.0,0.,24.0,0.,24.0
1979-07-07 15:29:44.500 ,6,1,0.,24.0,0.,24.0,0.,24.0,0.,24.0
1979-07-07 15:30:08.500 ,6,0,0.,24.0,0.,24.0,0.,24.0,0.,24.0
1979-07-07 15:30:32.500 ,7,0,0.,24.0,0.,24.0,0.,24.0,0.,24.0
1979-07-07 15:30:56.500 ,7,0,0.,24.0,0.,24.0,0.,24.0,0.,24.0
1979-07-07 15:31:20.500 ,5,1,0.,24.0,0.,24.0,0.,24.0,0.,24.0
1979-07-07 15:31:44.500 ,1,1,0.,24.0,0.,24.0,0.,24.0,0.,24.0
1979-07-07 15:32:08.500 ,2,1,0.,24.0,0.,24.0,0.,24.0,0.,24.0
1979-07-07 15:32:32.500 ,6,1,0.,24.0,0.,24.0,0.,24.0,0.,24.0
1979-07-07 15:32:56.500 ,5,1,0.,24.0,0.,24.0,0.,24.0,0.,24.0
1979-07-07 15:33:20.500 ,0,0,0.,24.0,0.,24.0,0.,24.0,0.,24.0
1979-07-07 15:33:46.300 ,2,1,0.,24.0,0.,24.0,0.,24.0,0.,24.0
1979-07-07 15:34:08.500 ,6,1,0.,24.0,0.,24.0,0.,24.0,0.,24.0
1979-07-07 15:34:32.500 ,5,1,0.,24.0,0.,24.0,0.,24.0,0.,24.0
1979-07-07 15:34:56.500 ,1,1,0.,24.0,0.,24.0,0.,24.0,0.,24.0
1979-07-07 15:35:20.500 ,0,0,0.,24.0,0.,24.0,0.,24.0,0.,24.0
1979-07-07 15:35:44.500 ,6,1,0.,24.0,0.,24.0,0.,24.0,0.,24.0
1979-07-07 15:36:08.500 ,5,1,0.,24.0,0.,24.0,0.,24.0,0.,24.0
1979-07-07 15:36:32.500 ,1,1,0.,24.0,0.,24.0,0.,24.0,0.,24.0
1979-07-07 15:36:56.500 ,2,1,0.,24.0,0.,24.0,0.,24.0,0.,24.0
1979-07-07 15:37:20.500 ,6,1,0.,24.0,0.,24.0,0.,24.0,0.,24.0
1979-07-07 15:37:44.500 ,5,1,0.,24.0,0.,24.0,0.,24.0,0.,24.0
1979-07-07 15:38:08.500 ,1,1,0.,24.0,0.,24.0,0.,24.0,0.,24.0
1979-07-07 15:38:32.500 ,2,1,0.,24.0,0.,24.0,0.,24.0,0.,24.0
1979-07-07 15:38:56.500 ,6,1,0.,24.0,0.,24.0,0.,24.0,0.,24.0
1979-07-07 15:39:20.500 ,5,1,0.,24.0,0.,24.0,0.,24.0,0.,24.0
1979-07-07 15:39:44.500 ,1,1,0.,24.0,0.,24.0,0.,24.0,0.,24.0
1979-07-07 15:40:08.500 ,2,1,0.,24.0,0.,24.0,0.,24.0,0.,24.0
1979-07-07 15:40:32.500 ,6,1,0.,24.0,0.,24.0,0.,24.0,0.,24.0
1979-07-07 15:40:56.500 ,5,1,0.,24.0,0.,24.0,0.,24.0,0.,24.0
1979-07-07 15:41:20.500 ,1,1,0.,24.0,0.,24.0,0.,24.0,0.,24.0
1979-07-07 15:41:44.500 ,0,0,0.,24.0,0.,24.0,0.,24.0,0.,24.0
1979-07-07 15:42:08.500 ,0,0,0.,24.0,0.,24.0,0.,24.0,0.,24.0
1979-07-07 15:42:32.500 ,5,1,0.,24.0,0.,24.0,0.,24.0,0.,24.0
1979-07-07 15:42:56.500 ,5,0,0.,24.0,0.,24.0,0.,24.0,0.,24.0
1979-07-07 15:43:20.500 ,4,1,0.,24.0,0.,24.0,0.,24.0,0.,24.0
1979-07-07 15:43:44.500 ,4,0,0.,24.0,0.,24.0,0.,24.0,0.,24.0
1979-07-07 15:44:08.500 ,3,1,0.,24.0,0.,24.0,0.,24.0,0.,24.0
1979-07-07 15:44:32.500 ,3,0,0.,24.0,0.,24.0,0.,24.0,0.,24.0
1979-07-07 15:44:56.500 ,2,1,0.,24.0,0.,24.0,0.,24.0,0.,24.0
1979-07-07 15:45:20.500 ,2,0,0.,24.0,0.,24.0,0.,24.0,0.,24.0
1979-07-07 15:45:44.500 ,1,1,0.,24.0,0.,24.0,0.,24.0,0.,24.0
1979-07-07 15:46:08.500 ,1,0,0.,24.0,0.,24.0,0.,24.0,0.,24.0
1979-07-07 15:46:32.500 ,0,1,0.,24.0,0.,24.0,0.,24.0,0.,24.0
1979-07-07 15:46:56.500 ,0,0,0.,24.0,0.,24.0,0.,24.0,0.,24.0
1979-07-07 15:47:20.500 ,0,1,0.,24.0,0.,24.0,0.,24.0,0.,24.0
1979-07-07 15:47:44.500 ,0,0,0.,24.0,0.,24.0,0.,24.0,0.,24.0
1979-07-07 15:48:08.500 ,1,1,0.,24.0,0.,24.0,0.,24.0,0.,24.0
1979-07-07 15:48:32.500 ,1,0,0.,24.0,0.,24.0,0.,24.0,0.,24.0
1979-07-07 15:48:56.500 ,2,1,0.,24.0,0.,24.0,0.,24.0,0.,24.0
1979-07-07 15:49:20.500 ,2,0,0.,24.0,0.,24.0,0.,24.0,0.,24.0
1979-07-07 15:49:44.500 ,3,1,0.,24.0,0.,24.0,0.,24.0,0.,24.0
1979-07-07 15:50:08.500 ,3,0,0.,24.0,0.,24.0,0.,24.0,0.,24.0
1979-07-07 15:50:32.500 ,4,1,0.,24.0,0.,24.0,0.,24.0,0.,24.0
1979-07-07 15:50:56.500 ,4,0,0.,24.0,0.,24.0,0.,24.0,0.,24.0
1979-07-07 15:51:20.500 ,5,1,0.,24.0,0.,24.0,0.,24.0,0.,24.0
1979-07-07 15:51:44.500 ,5,0,0.,24.0,0.,24.0,0.,24.0,0.,24.0
1979-07-07 15:52:08.500 ,6,1,0.,24.0,0.,24.0,0.,24.0,0.,24.0
1979-07-07 15:52:32.500 ,6,0,0.,24.0,0.,24.0,0.,24.0,0.,24.0
1979-07-07 15:52:56.500 ,7,1,0.,24.0,0.,24.0,0.,24.0,0.,24.0
1979-07-07 15:53:20.500 ,7,0,0.,24.0,0.,24.0,0.,24.0,0.,24.0
1979-07-07 15:53:44.500 ,7,1,0.,24.0,0.,24.0,0.,24.0,0.,24.0
1979-07-07 15:54:08.500 ,7,0,0.,24.0,0.,24.0,0.,24.0,0.,24.0
1979-07-07 15:54:32.500 ,6,1,0.,24.0,0.,24.0,0.,24.0,0.,24.0
1979-07-07 15:54:56.500 ,6,0,0.,24.0,0.,24.0,0.,24.0,0.,24.0
1979-07-07 15:55:20.500 ,5,1,0.,24.0,0.,24.0,0.,24.0,0.,24.0
1979-07-07 15:55:44.500 ,5,0,0.,24.0,0.,24.0,0.,24.0,0.,24.0
1979-07-07 15:56:08.500 ,4,1,0.,24.0,0.,24.0,0.,24.0,0.,24.0
1979-07-07 15:56:32.500 ,4,0,0.,24.0,0.,24.0,0.,24.0,0.,24.0
1979-07-07 15:56:56.500 ,3,1,0.,24.0,0.,24.0,0.,24.0,0.,24.0
1979-07-07 15:57:20.500 ,3,0,0.,24.0,0.,24.0,0.,24.0,0.,24.0
1979-07-07 15:57:44.500 ,2,1,0.,24.0,0.,24.0,0.,24.0,0.,24.0
1979-07-07 15:58:08.500 ,2,0,0.,24.0,0.,24.0,0.,24.0,0.,24.0
1979-07-07 15:58:32.500 ,1,1,0.,24.0,0.,24.0,0.,24.0,0.,24.0
1979-07-07 15:58:56.500 ,1,0,0.,24.0,0.,24.0,0.,24.0,0.,24.0
1979-07-07 15:59:20.500 ,0,1,0.,24.0,0.,24.0,0.,24.0,0.,24.0
1979-07-07 15:59:44.500 ,0,0,0.,24.0,0.,24.0,0.,24.0,0.,24.0
1979-07-07 16:00:08.500 ,0,0,0.,24.0,0.,24.0,0.,24.0,0.,24.0
1979-07-07 16:00:32.500 ,0,0,0.,24.0,0.,24.0,0.,24.0,0.,24.0
1979-07-07 16:00:56.500 ,1,1,0.,24.0,0.,24.0,0.,24.0,0.,24.0
1979-07-07 16:01:20.500 ,1,0,0.,24.0,0.,24.0,0.,24.0,0.,24.0
1979-07-07 16:01:44.500 ,2,1,0.,24.0,0.,24.0,0.,24.0,0.,24.0
1979-07-07 16:02:08.500 ,2,0,0.,24.0,0.,24.0,0.,24.0,0.,24.0
1979-07-07 16:02:32.500 ,3,1,0.,24.0,0.,24.0,0.,24.0,0.,24.0
1979-07-07 16:02:56.500 ,3,0,0.,24.0,0.,24.0,0.,24.0,0.,24.0
1979-07-07 16:03:20.500 ,4,1,0.,24.0,0.,24.0,0.,24.0,0.,24.0
1979-07-07 16:03:44.500 ,4,0,0.,24.0,0.,24.0,0.,24.0,0.,24.0
1979-07-07 16:04:08.500 ,5,1,0.,24.0,0.,24.0,0.,24.0,0.,24.0
1979-07-07 16:04:32.500 ,5,0,0.,24.0,0.,24.0,0.,24.0,0.,24.0
1979-07-07 16:04:56.500 ,6,1,0.,24.0,0.,24.0,0.,24.0,0.,24.0
1979-07-07 16:05:20.500 ,6,0,0.,24.0,0.,24.0,0.,24.0,0.,24.0
1979-07-07 16:05:44.500 ,7,1,0.,24.0,0.,24.0,0.,24.0,0.,24.0
1979-07-07 16:06:08.500 ,7,0,0.,24.0,0.,24.0,0.,24.0,0.,24.0
1979-07-07 16:06:32.500 ,7,1,0.,24.0,0.,24.0,0.,24.0,0.,24.0
1979-07-07 16:06:56.500 ,7,0,0.,24.0,0.,24.0,0.,24.0,0.,24.0
1979-07-07 16:07:20.500 ,6,1,0.,24.0,0.,24.0,0.,24.0,0.,24.0
1979-07-07 16:07:44.500 ,6,0,0.,24.0,0.,24.0,0.,24.0,0.,24.0
1979-07-07 16:08:08.500 ,5,1,0.,24.0,0.,24.0,0.,24.0,0.,24.0
1979-07-07 16:08:32.500 ,5,0,0.,24.0,0.,24.0,0.,24.0,0.,24.0
1979-07-07 16:08:56.500 ,4,1,0.,24.0,0.,24.0,0.,24.0,0.,24.0
1979-07-07 16:09:20.500 ,4,0,0.,24.0,0.,24.0,0.,24.0,0.,24.0
1979-07-07 16:09:44.500 ,3,1,0.,24.0,0.,24.0,0.,24.0,0.,24.0
1979-07-07 16:10:08.500 ,3,0,0.,24.0,0.,24.0,0.,24.0,0.,24.0
1979-07-07 16:10:32.500 ,2,1,0.,24.0,0.,24.0,0.,24.0,0.,24.0
1979-07-07 16:10:56.500 ,2,0,0.,24.0,0.,24.0,0.,24.0,0.,24.0
1979-07-07 16:11:20.500 ,1,1,0.,24.0,0.,24.0,0.,24.0,0.,24.0
1979-07-07 16:11:44.500 ,1,0,0.,24.0,0.,24.0,0.,24.0,0.,24.0
1979-07-07 16:12:08.500 ,0,1,0.,24.0,0.,24.0,0.,24.0,0.,24.0
1979-07-07 16:12:32.500 ,0,0,0.,24.0,0.,24.0,0.,24.0,0.,24.0
1979-07-07 16:12:56.500 ,0,1,0.,24.0,0.,24.0,0.,24.0,0.,24.0
1979-07-07 16:13:20.500 ,0,0,0.,24.0,0.,24.0,0.,24.0,0.,24.0
1979-07-07 16:13:44.500 ,1,0,,0,,0,,0,,0
1979-07-07 16:14:08.500 ,1,0,0.,24.0,0.,24.0,0.,24.0,0.,24.0
1979-07-07 16:14:32.500 ,2,1,0.,24.0,0.,24.0,0.,24.0,0.,24.0
1979-07-07 16:14:56.500 ,2,0,0.,24.0,0.,24.0,0.,24.0,0.,24.0
1979-07-07 16:15:20.500 ,3,1,0.,24.0,0.,24.0,0.,24.0,0.,24.0
1979-07-07 16:15:44.500 ,3,0,0.,24.0,0.,24.0,0.,24.0,0.,24.0
1979-07-07 16:16:08.500 ,4,1,0.,24.0,0.,24.0,0.,24.0,0.,24.0
1979-07-07 16:16:32.500 ,4,0,0.,24.0,0.,24.0,0.,24.0,0.,24.0
1979-07-07 16:16:56.500 ,5,1,0.,24.0,0.,24.0,0.,24.0,0.,24.0
1979-07-07 16:17:20.500 ,5,0,0.,24.0,0.,24.0,0.,24.0,0.,24.0
1979-07-07 16:17:44.500 ,6,1,0.,24.0,0.,24.0,0.,24.0,0.,24.0
1979-07-07 16:18:08.500 ,6,0,0.,24.0,0.,24.0,0.,24.0,0.,24.0
1979-07-07 16:18:32.500 ,7,0,0.,24.0,0.,24.0,0.,24.0,0.,24.0
1979-07-07 16:18:56.500 ,7,0,0.,24.0,0.,24.0,0.,24.0,0.,24.0
1979-07-07 16:19:20.500 ,5,1,0.,24.0,0.,24.0,0.,24.0,0.,24.0
1979-07-07 16:19:44.500 ,1,1,0.,24.0,0.,24.0,0.,24.0,0.,24.0
1979-07-07 16:20:08.500 ,2,1,0.,24.0,0.,24.0,0.,24.0,0.,24.0
1979-07-07 16:20:32.500 ,0,0,0.,24.0,0.,24.0,0.,24.0,0.,24.0
1979-07-07 16:21:00.700 ,0,0,,0,,0,,0,,0
1979-07-07 16:21:20.500 ,0,0,0.,24.0,0.,24.0,0.,24.0,0.,24.0
1979-07-07 16:21:44.500 ,2,1,0.,24.0,0.,24.0,0.,24.0,0.,24.0
1979-07-07 16:22:08.500 ,6,1,0.,24.0,0.,24.0,0.,24.0,0.,24.0
1979-07-07 16:22:32.500 ,5,1,0.,24.0,0.,24.0,0.,24.0,0.,24.0
1979-07-07 16:22:56.500 ,1,1,0.,24.0,0.,24.0,0.,24.0,0.,24.0
1979-07-07 16:23:20.500 ,2,1,0.,24.0,0.,24.0,0.,24.0,0.,24.0
1979-07-07 16:23:44.500 ,6,1,0.,24.0,0.,24.0,0.,24.0,0.,24.0
1979-07-07 16:24:08.500 ,5,1,0.,24.0,0.,24.0,0.,24.0,0.,24.0
1979-07-07 16:24:32.500 ,1,1,0.,24.0,0.,24.0,0.,24.0,0.,24.0
1979-07-07 16:24:56.500 ,2,1,0.,24.0,0.,24.0,0.,24.0,0.,24.0
1979-07-07 16:25:20.500 ,6,1,0.,24.0,0.,24.0,0.,24.0,0.,24.0
1979-07-07 16:25:44.500 ,5,1,0.,24.0,0.,24.0,0.,24.0,0.,24.0
1979-07-07 16:26:08.500 ,1,1,0.,24.0,0.,24.0,0.,24.0,0.,24.0
1979-07-07 16:26:32.500 ,2,1,0.,24.0,0.,24.0,0.,24.0,0.,24.0
1979-07-07 16:26:56.500 ,6,1,0.,24.0,0.,24.0,0.,24.0,0.,24.0
1979-07-07 16:27:20.500 ,5,1,0.,24.0,0.,24.0,0.,24.0,0.,24.0
1979-07-07 16:27:44.500 ,1,1,0.,24.0,0.,24.0,0.,24.0,0.,24.0
1979-07-07 16:28:08.500 ,2,1,0.,24.0,0.,24.0,0.,24.0,0.,24.0
1979-07-07 16:28:32.500 ,6,1,0.,24.0,0.,24.0,0.,24.0,0.,24.0
1979-07-07 16:28:56.500 ,5,1,0.,24.0,0.,24.0,0.,24.0,0.,24.0
1979-07-07 16:29:20.500 ,1,1,0.,24.0,0.,24.0,0.,24.0,0.,24.0
1979-07-07 16:29:44.500 ,0,0,0.,24.0,0.,24.0,0.,24.0,0.,24.0
1979-07-07 16:30:08.500 ,0,0,0.,24.0,0.,24.0,0.,24.0,0.,24.0
1979-07-07 16:30:32.500 ,5,1,0.,24.0,0.,24.0,0.,24.0,0.,24.0
1979-07-07 16:30:56.500 ,5,0,0.,24.0,0.,24.0,0.,24.0,0.,24.0
1979-07-07 16:31:20.500 ,4,1,0.,24.0,0.,24.0,0.,24.0,0.,24.0
1979-07-07 16:31:44.500 ,4,0,0.,24.0,0.,24.0,0.,24.0,0.,24.0
1979-07-07 16:32:08.500 ,3,1,0.,24.0,0.,24.0,0.,24.0,0.,24.0
1979-07-07 16:32:32.500 ,3,0,0.,24.0,0.,24.0,0.,24.0,0.,24.0
1979-07-07 16:32:56.500 ,2,1,0.,24.0,0.,24.0,0.,24.0,0.,24.0
1979-07-07 16:33:20.500 ,2,0,0.,24.0,0.,24.0,0.,24.0,0.,24.0
1979-07-07 16:33:44.500 ,1,1,0.,24.0,0.,24.0,0.,24.0,0.,24.0
1979-07-07 16:34:08.500 ,1,0,0.,24.0,0.,24.0,0.,24.0,0.,24.0
1979-07-07 16:34:32.500 ,0,1,0.,24.0,0.,24.0,0.,24.0,0.,24.0
1979-07-07 16:34:56.500 ,0,0,0.,24.0,0.,24.0,0.,24.0,0.,24.0
1979-07-07 16:35:20.500 ,0,1,0.,24.0,0.,24.0,0.,24.0,0.,24.0
1979-07-07 16:35:44.500 ,0,0,0.,24.0,0.,24.0,0.,24.0,0.,24.0
1979-07-07 16:36:08.500 ,1,1,0.,24.0,0.,24.0,0.,24.0,0.,24.0
1979-07-07 16:36:32.500 ,1,0,0.,24.0,0.,24.0,0.,24.0,0.,24.0
1979-07-07 16:36:56.500 ,2,1,0.,24.0,0.,24.0,0.,24.0,0.,24.0
1979-07-07 16:37:20.500 ,2,0,0.,24.0,0.,24.0,0.,24.0,0.,24.0
1979-07-07 16:37:44.500 ,3,1,0.,24.0,0.,24.0,0.,24.0,0.,24.0
1979-07-07 16:38:08.500 ,3,0,0.,24.0,0.,24.0,0.,24.0,0.,24.0
1979-07-07 16:38:32.500 ,4,1,0.,24.0,0.,24.0,0.,24.0,0.,24.0
1979-07-07 16:38:56.500 ,4,0,0.,24.0,0.,24.0,0.,24.0,0.,24.0
1979-07-07 16:39:20.500 ,5,1,0.,24.0,0.,24.0,0.,24.0,0.,24.0
1979-07-07 16:39:44.500 ,5,0,0.,24.0,0.,24.0,0.,24.0,0.,24.0
1979-07-07 16:40:08.500 ,6,1,0.,24.0,0.,24.0,0.,24.0,0.,24.0
1979-07-07 16:40:32.500 ,6,0,0.,24.0,0.,24.0,0.,24.0,0.,24.0
1979-07-07 16:40:56.500 ,7,1,0.,24.0,0.,24.0,0.,24.0,0.,24.0
1979-07-07 16:41:20.500 ,0,0,0.,24.0,0.,24.0,0.,24.0,0.,24.0
1979-07-07 16:41:44.500 ,7,1,0.,24.0,0.,24.0,0.,24.0,0.,24.0
1979-07-07 16:42:08.500 ,7,0,0.,24.0,0.,24.0,0.,24.0,0.,24.0
1979-07-07 16:42:32.500 ,6,1,0.,24.0,0.,24.0,0.,24.0,0.,24.0
1979-07-07 16:42:56.500 ,6,0,0.,24.0,0.,24.0,0.,24.0,0.,24.0
1979-07-07 16:43:20.500 ,5,1,0.,24.0,0.,24.0,0.,24.0,0.,24.0
1979-07-07 16:43:44.500 ,5,0,0.,24.0,0.,24.0,0.,24.0,0.,24.0
1979-07-07 16:44:08.500 ,4,1,0.,24.0,0.,24.0,0.,24.0,0.,24.0
1979-07-07 16:44:32.500 ,4,0,0.,24.0,0.,24.0,0.,24.0,0.,24.0
1979-07-07 16:44:56.500 ,3,1,0.,24.0,0.,24.0,0.,24.0,0.,24.0
1979-07-07 16:45:20.500 ,3,0,0.,24.0,0.,24.0,0.,24.0,0.,24.0
1979-07-07 16:45:44.500 ,2,1,0.,24.0,0.,24.0,0.,24.0,0.,24.0
1979-07-07 16:46:08.500 ,2,0,0.,24.0,0.,24.0,0.,24.0,0.,24.0
1979-07-07 16:46:32.500 ,1,1,0.,24.0,0.,24.0,0.,24.0,0.,24.0
1979-07-07 16:46:56.500 ,1,0,0.,24.0,0.,24.0,0.,24.0,0.,24.0
1979-07-07 16:47:20.500 ,0,1,0.,24.0,0.,24.0,0.,24.0,0.,24.0
1979-07-07 16:47:44.500 ,0,0,0.,24.0,0.,24.0,0.,24.0,0.,24.0
1979-07-07 16:48:08.500 ,0,1,0.,24.0,0.,24.0,0.,24.0,0.,24.0
1979-07-07 16:48:32.500 ,0,0,0.,24.0,0.,24.0,0.,24.0,0.,24.0
1979-07-07 16:48:56.500 ,1,1,0.,24.0,0.,24.0,0.,24.0,0.,24.0
1979-07-07 16:49:20.500 ,1,0,0.,24.0,0.,24.0,0.,24.0,0.,24.0
1979-07-07 16:49:44.500 ,2,1,0.,24.0,0.,24.0,0.,24.0,0.,24.0
1979-07-07 16:50:08.500 ,2,0,0.,24.0,0.,24.0,0.,24.0,0.,24.0
1979-07-07 16:50:32.500 ,3,1,0.,24.0,0.,24.0,0.,24.0,0.,24.0
1979-07-07 16:50:56.500 ,3,0,0.,24.0,0.,24.0,0.,24.0,0.,24.0
1979-07-07 16:51:20.500 ,4,1,0.,24.0,0.,24.0,0.,24.0,0.,24.0
1979-07-07 16:51:44.500 ,4,0,0.,24.0,0.,24.0,0.,24.0,0.,24.0
1979-07-07 16:52:08.500 ,5,1,0.,24.0,0.,24.0,0.,24.0,0.,24.0
1979-07-07 16:52:32.500 ,5,0,0.,24.0,0.,24.0,0.,24.0,0.,24.0
1979-07-07 16:52:56.500 ,6,1,0.,24.0,0.,24.0,0.,24.0,0.,24.0
1979-07-07 16:53:20.500 ,6,0,0.,24.0,0.,24.0,0.,24.0,0.,24.0
1979-07-07 16:53:44.500 ,7,1,0.,24.0,0.,24.0,0.,24.0,0.,24.0
1979-07-07 16:54:08.500 ,7,0,0.,24.0,0.,24.0,0.,24.0,0.,24.0
1979-07-07 16:54:32.500 ,7,1,0.,24.0,0.,24.0,0.,24.0,0.,24.0
1979-07-07 16:54:56.500 ,7,0,0.,24.0,0.,24.0,0.,24.0,0.,24.0
1979-07-07 16:55:20.500 ,6,1,0.,24.0,0.,24.0,0.,24.0,0.,24.0
1979-07-07 16:55:44.500 ,6,0,0.,24.0,0.,24.0,0.,24.0,0.,24.0
1979-07-07 16:56:08.500 ,5,1,0.,24.0,0.,24.0,0.,24.0,0.,24.0
1979-07-07 16:56:32.500 ,5,0,0.,24.0,0.,24.0,0.,24.0,0.,24.0
1979-07-07 16:56:56.500 ,4,1,0.,24.0,0.,24.0,0.,24.0,0.,24.0
1979-07-07 16:57:20.500 ,4,0,0.,24.0,0.,24.0,0.,24.0,0.,24.0
1979-07-07 16:57:44.500 ,3,1,0.,24.0,0.,24.0,0.,24.0,0.,24.0
1979-07-07 16:58:08.500 ,3,0,0.,24.0,0.,24.0,0.,24.0,0.,24.0
1979-07-07 16:58:32.500 ,2,1,0.,24.0,0.,24.0,0.,24.0,0.,24.0
1979-07-07 16:58:56.500 ,2,0,0.,24.0,0.,24.0,0.,24.0,0.,24.0
1979-07-07 16:59:20.500 ,1,1,0.,24.0,0.,24.0,0.,24.0,0.,24.0
1979-07-07 16:59:44.500 ,1,0,0.,24.0,0.,24.0,0.,24.0,0.,24.0
1979-07-07 17:00:08.500 ,0,1,0.,24.0,0.,24.0,0.,24.0,0.,24.0
1979-07-07 17:00:32.500 ,0,0,0.,24.0,0.,24.0,0.,24.0,0.,24.0
1979-07-07 17:00:56.500 ,0,1,0.,24.0,0.,24.0,0.,24.0,0.,24.0
1979-07-07 17:01:20.500 ,0,0,0.,24.0,0.,24.0,0.,24.0,0.,24.0
1979-07-07 17:01:44.500 ,1,1,0.,24.0,0.,24.0,0.,24.0,0.,24.0
1979-07-07 17:02:08.500 ,1,0,0.,24.0,0.,24.0,0.,24.0,0.,24.0
1979-07-07 17:02:32.500 ,2,1,0.,24.0,0.,24.0,0.,24.0,0.,24.0
1979-07-07 17:02:56.500 ,2,0,0.,24.0,0.,24.0,0.,24.0,0.,24.0
1979-07-07 17:03:20.500 ,3,1,0.,24.0,0.,24.0,0.,24.0,0.,24.0
1979-07-07 17:03:44.500 ,3,0,0.,24.0,0.,24.0,0.,24.0,0.,24.0
1979-07-07 17:04:08.500 ,4,1,0.,24.0,0.,24.0,0.,24.0,0.,24.0
1979-07-07 17:04:32.500 ,4,0,0.,24.0,0.,24.0,0.,24.0,0.,24.0
1979-07-07 17:04:56.500 ,5,1,0.,24.0,0.,24.0,0.,24.0,0.,24.0
1979-07-07 17:05:20.500 ,5,0,0.,24.0,0.,24.0,0.,24.0,0.,24.0
1979-07-07 17:05:44.500 ,6,1,0.,24.0,0.,24.0,0.,24.0,0.,24.0
1979-07-07 17:06:08.500 ,6,0,0.,24.0,0.,24.0,0.,24.0,0.,24.0
1979-07-07 17:06:32.500 ,7,0,0.,24.0,0.,24.0,0.,24.0,0.,24.0
1979-07-07 17:06:56.500 ,7,0,0.,24.0,0.,24.0,0.,24.0,0.,24.0
1979-07-07 17:07:20.500 ,5,1,0.,24.0,0.,24.0,0.,24.0,0.,24.0
1979-07-07 17:07:44.500 ,1,1,0.,24.0,0.,24.0,0.,24.0,0.,24.0
1979-07-07 17:08:08.500 ,2,1,0.,24.0,0.,24.0,0.,24.0,0.,24.0
1979-07-07 17:08:32.500 ,6,1,0.,24.0,0.,24.0,0.,24.0,0.,24.0
1979-07-07 17:08:56.500 ,5,1,0.,24.0,0.,24.0,0.,24.0,0.,24.0
1979-07-07 17:09:20.500 ,1,1,0.,24.0,0.,24.0,0.,24.0,0.,24.0
1979-07-07 17:09:44.500 ,2,1,0.,24.0,0.,24.0,0.,24.0,0.,24.0
1979-07-07 17:10:08.500 ,6,1,0.,24.0,0.,24.0,0.,24.0,0.,24.0
1979-07-07 17:10:32.500 ,5,1,0.,24.0,0.,24.0,0.,24.0,0.,24.0
1979-07-07 17:10:56.500 ,1,1,0.,24.0,0.,24.0,0.,24.0,0.,24.0
1979-07-07 17:11:20.500 ,2,1,0.,24.0,0.,24.0,0.,24.0,0.,24.0
1979-07-07 17:11:44.500 ,6,1,0.,24.0,0.,24.0,0.,24.0,0.,24.0
1979-07-07 17:12:08.500 ,5,1,0.,24.0,0.,24.0,0.,24.0,0.,24.0
1979-07-07 17:12:32.500 ,1,1,0.,24.0,0.,24.0,0.,24.0,0.,24.0
1979-07-07 17:12:56.500 ,2,1,0.,24.0,0.,24.0,0.,24.0,0.,24.0
1979-07-07 17:13:20.500 ,6,1,0.,24.0,0.,24.0,0.,24.0,0.,24.0
1979-07-07 17:13:44.500 ,5,1,0.,24.0,0.,24.0,0.,24.0,0.,24.0
1979-07-07 17:14:08.500 ,1,1,0.,24.0,0.,24.0,0.,24.0,0.,24.0
1979-07-07 17:14:32.500 ,2,1,0.,24.0,0.,24.0,0.,24.0,0.,24.0
1979-07-07 17:14:56.500 ,6,1,0.,24.0,0.,24.0,0.,24.0,0.,24.0
1979-07-07 17:15:20.500 ,5,1,0.,24.0,0.,24.0,0.,24.0,0.,24.0
1979-07-07 17:15:44.500 ,1,1,0.,24.0,0.,24.0,0.,24.0,0.,24.0
1979-07-07 17:16:08.500 ,2,1,0.,24.0,0.,24.0,0.,24.0,0.,24.0
1979-07-07 17:16:32.500 ,6,1,0.,24.0,0.,24.0,0.,24.0,0.,24.0
1979-07-07 17:16:56.500 ,5,1,0.,24.0,0.,24.0,0.,24.0,0.,24.0
1979-07-07 17:17:20.500 ,1,1,0.,24.0,0.,24.0,0.,24.0,0.,24.0
1979-07-07 17:17:44.500 ,0,0,0.,24.0,0.,24.0,0.,24.0,0.,24.0
1979-07-07 17:18:08.500 ,0,0,0.,24.0,0.,24.0,0.,24.0,0.,24.0
1979-07-07 17:18:32.500 ,5,1,0.,24.0,0.,24.0,0.,24.0,0.,24.0
1979-07-07 17:18:56.500 ,5,0,0.,24.0,0.,24.0,0.,24.0,0.,24.0
1979-07-07 17:19:20.500 ,4,1,0.,24.0,0.,24.0,0.,24.0,0.,24.0
1979-07-07 17:19:44.500 ,4,0,0.,24.0,0.,24.0,0.,24.0,0.,24.0
1979-07-07 17:20:08.500 ,3,1,0.,24.0,0.,24.0,0.,24.0,0.,24.0
1979-07-07 17:20:32.500 ,3,0,0.,24.0,0.,24.0,0.,24.0,0.,24.0
1979-07-07 17:20:56.500 ,2,1,0.,24.0,0.,24.0,0.,24.0,0.,24.0
1979-07-07 17:21:20.500 ,0,0,0.,24.0,0.,24.0,0.,24.0,0.,24.0
1979-07-07 17:21:44.500 ,1,1,0.,24.0,0.,24.0,0.,24.0,0.,24.0
1979-07-07 17:22:08.500 ,1,0,0.,24.0,0.,24.0,0.,24.0,0.,24.0
1979-07-07 17:22:32.500 ,0,1,0.,24.0,0.,24.0,0.,24.0,0.,24.0
1979-07-07 17:22:56.500 ,0,0,0.,24.0,0.,24.0,0.,24.0,0.,24.0
1979-07-07 17:23:20.500 ,0,1,0.,24.0,0.,24.0,0.,24.0,0.,24.0
1979-07-07 17:23:44.500 ,0,0,0.,24.0,0.,24.0,0.,24.0,0.,24.0
1979-07-07 17:24:08.500 ,1,1,0.,24.0,0.,24.0,0.,24.0,0.,24.0
1979-07-07 17:24:32.500 ,1,0,0.,24.0,0.,24.0,0.,24.0,0.,24.0
1979-07-07 17:24:56.500 ,2,1,0.,24.0,0.,24.0,0.,24.0,0.,24.0
1979-07-07 17:25:20.500 ,2,0,0.,24.0,0.,24.0,0.,24.0,0.,24.0
1979-07-07 17:25:44.500 ,3,1,0.,24.0,0.,24.0,0.,24.0,0.,24.0
1979-07-07 17:26:08.500 ,3,0,0.,24.0,0.,24.0,0.,24.0,0.,24.0
1979-07-07 17:26:32.500 ,4,1,0.,24.0,0.,24.0,0.,24.0,0.,24.0
1979-07-07 17:26:56.500 ,4,0,0.,24.0,0.,24.0,0.,24.0,0.,24.0
1979-07-07 17:27:20.500 ,5,1,0.,24.0,0.,24.0,0.,24.0,0.,24.0
1979-07-07 17:27:44.500 ,5,0,0.,24.0,0.,24.0,0.,24.0,0.,24.0
1979-07-07 17:28:08.500 ,6,1,0.,24.0,0.,24.0,0.,24.0,0.,24.0
1979-07-07 17:28:32.500 ,6,0,0.,24.0,0.,24.0,0.,24.0,0.,24.0
1979-07-07 17:28:56.500 ,7,1,0.,24.0,0.,24.0,0.,24.0,0.,24.0
1979-07-07 17:29:20.500 ,7,0,0.,24.0,0.,24.0,0.,24.0,0.,24.0
1979-07-07 17:29:44.500 ,7,1,0.,24.0,0.,24.0,0.,24.0,0.,24.0
1979-07-07 17:30:08.500 ,7,0,0.,24.0,0.,24.0,0.,24.0,0.,24.0
1979-07-07 17:30:32.500 ,6,1,0.,24.0,0.,24.0,0.,24.0,0.,24.0
1979-07-07 17:30:56.500 ,6,0,0.,24.0,0.,24.0,0.,24.0,0.,24.0
1979-07-07 17:31:20.500 ,5,1,0.,24.0,0.,24.0,0.,24.0,0.,24.0
1979-07-07 17:31:44.500 ,5,0,0.,24.0,0.,24.0,0.,24.0,0.,24.0
1979-07-07 17:32:08.500 ,4,1,0.,24.0,0.,24.0,0.,24.0,0.,24.0
1979-07-07 17:32:32.500 ,4,0,0.,24.0,0.,24.0,0.,24.0,0.,24.0
1979-07-07 17:32:56.500 ,3,1,0.,24.0,0.,24.0,0.,24.0,0.,24.0
1979-07-07 17:33:20.500 ,3,0,0.,24.0,0.,24.0,0.,24.0,0.,24.0
1979-07-07 17:33:44.500 ,2,1,0.,24.0,0.,24.0,0.,24.0,0.,24.0
1979-07-07 17:34:08.500 ,2,0,0.,24.0,0.,24.0,0.,24.0,0.,24.0
1979-07-07 17:34:32.500 ,1,1,0.,24.0,0.,24.0,0.,24.0,0.,24.0
1979-07-07 17:34:56.500 ,1,0,0.,24.0,0.,24.0,0.,24.0,0.,24.0